Wind_Speed
74 80 72 75 72 81 85 77 71 69 61 57 66 65 63 61 61 68 68 73 71 66 68 72 75 73 75 73 74 75 76 75 78 79 80 81 83 91 94 95 94 93 97
63 62 68 70 59 58 54 67 69 70 68 63 65 66 64 68 67 67 75 73 71 72 67 74 77 78 80 79 78 79 81 81 83 84 83 86 89 95 97 95 93 95 97
79 75 67 64 64 57 65 58 59 65 62 67 69 70 72 73 74 74 75 80 78 74 70 74 79 81 81 83 85 85 83 83 84 87 90 94 97 99 100 96 98 99 100
80 78 87 74 68 70 69 70 67 68 67 68 66 69 75 76 78 76 78 80 84 84 82 79 79 82 82 83 85 85 87 89 94 95 98 98 98 102 97 97 100 100 102
90 86 84 86 83 80 79 78 79 83 81 78 75 76 75 77 79 83 84 82 82 83 83 85 85 88 92 88 92 92 95 99 98 98 99 101 104 100 100 100 100 104 111
87 91 88 91 86 84 83 80 83 86 83 84 90 89 81 82 83 84 86 86 84 89 87 88 91 92 96 98 97 96 98 98 97 100 100 100 99 99 97 104 106 110 116
93 89 91 95 92 93 94 89 87 89 87 81 85 90 87 85 87 87 81 83 85 89 92 92 95 97 97 94 95 95 95 100 99 102 103 102 103 105 107 112 113 119 125
92 94 93 98 98 98 95 94 95 94 95 91 87 89 88 87 88 87 86 87 89 91 94 94 96 97 96 95 99 98 100 100 103 104 105 105 110 111 111 117 124 127 131
94 93 97 102 100 103 106 100 95 96 94 92 95 94 92 97 96 96 98 99 98 98 98 100 102 101 103 104 107 104 104 108 107 107 115 112 113 121 121 126 131 138 144
97 96 100 99 106 106 108 108 107 104 103 99 96 97 96 100 101 103 107 104 105 106 105 107 109 109 115 113 111 114 113 112 114 114 116 121 125 128 133 137 143 145 144
103 104 103 107 109 113 115 117 115 112 110 111 112 109 108 109 111 110 108 108 107 107 110 111 114 116 115 116 115 118 118 114 118 122 127 133 134 142 142 145 143 147 151
107 109 112 113 112 114 118 121 121 118 121 118 121 119 119 116 118 116 116 117 116 118 117 118 115 113 117 118 120 122 123 123 129 131 141 141 144 147 148 148 148 148 149
115 113 115 118 124 125 124 122 127 129 127 125 123 122 125 125 126 126 127 126 126 128 129 130 128 129 130 132 132 135 138 139 143 143 147 150 147 153 149 149 150 152 155
123 125 123 126 129 134 133 134 132 133 134 136 138 140 136 134 135 134 133 131 132 136 138 139 137 136 141 143 144 143 141 147 150 158 156 152 148 153 150 150 153 139 137
122 125 130 134 138 137 136 142 146 147 144 145 142 143 144 145 145 149 150 144 145 144 144 145 149 152 153 156 160 160 156 157 159 156 159 159 149 140 152 140 145 149 135
119 122 133 137 140 147 150 154 153 156 158 159 155 159 158 155 157 157 156 158 156 156 159 165 168 169 170 165 168 173 163 161 162 155 156 140 150 142 145 142 135 130 122
96 103 115 132 135 136 147 157 161 162 168 170 169 172 171 168 166 166 167 170 170 175 177 178 178 172 163 158 160 166 157 148 147 150 148 137 136 145 132 131 132 116 103
53 52 58 68 81 102 115 126 137 145 151 157 165 169 174 183 178 176 180 184 190 188 185 181 173 158 160 162 158 157 154 149 149 152 146 140 131 123 126 115 102 91 81
46 49 51 56 62 69 79 88 94 100 107 113 119 124 127 128 132 138 142 146 148 148 148 148 150 155 157 161 159 157 151 151 149 139 127 119 116 110 102 97 88 80 74
61 56 58 60 60 61 64 68 73 78 81 83 86 88 91 97 102 105 107 108 110 112 114 116 118 120 122 123 123 124 120 116 112 109 104 101 97 94 92 83 76 73 67
70 68 66 62 59 57 58 61 64 67 71 73 76 77 79 81 83 84 84 88 91 93 95 98 100 102 104 104 104 104 103 101 100 98 94 92 88 85 79 74 71 69 68
77 74 71 66 61 56 55 57 58 60 63 64 65 67 70 72 74 74 75 75 78 82 87 89 92 94 95 96 96 96 96 96 94 93 92 89 86 80 77 72 73 68 66
83 79 76 70 65 60 57 57 56 55 55 55 55 56 58 60 62 64 65 66 69 73 77 80 84 87 89 90 91 92 91 91 90 89 88 86 84 82 80 76 75 72 70
88 84 79 73 66 62 58 56 55 51 49 49 49 50 51 52 53 55 56 59 60 63 67 70 73 76 79 82 84 85 85 86 87 87 87 87 86 84 82 80 78 77 73
91 85 77 71 66 62 58 54 52 48 46 45 44 45 47 48 49 51 53 54 56 57 59 61 63 65 68 71 75 77 79 80 81 82 83 83 82 83 83 82 81 79 79
91 85 77 70 65 60 57 53 49 47 44 43 43 43 44 46 47 49 51 52 53 55 55 56 58 59 60 62 65 68 70 72 73 75 76 77 78 77 76 77 76 76 75
Wind_Direction
203 203 206 216 221 229 233 233 235 235 250 248 249 253 255 259 260 255 257 257 260 268 273 275 277 282 282 289 289 293 298 294 295 296 296 296 299 303 307 306 310 310 309
191 195 206 209 218 222 230 234 242 248 246 245 244 250 256 258 258 257 255 256 260 268 271 274 274 273 278 283 288 292 292 290 290 293 292 295 297 303 304 305 304 306 306
205 203 203 213 222 229 231 233 238 241 244 248 251 251 252 254 253 251 254 256 259 265 267 270 271 275 276 279 282 285 290 290 291 291 293 298 300 301 303 306 303 305 307
207 212 211 214 217 225 225 228 231 239 239 241 245 250 251 249 249 251 253 256 258 263 264 264 266 271 276 280 282 288 288 289 292 292 296 295 296 298 301 301 300 302 303
212 214 214 216 216 219 223 225 227 229 234 236 239 242 246 246 249 249 251 252 254 260 260 261 263 269 273 278 281 284 288 290 290 292 290 291 293 299 300 300 298 301 298
213 212 213 217 219 222 227 231 233 232 236 241 240 241 248 249 249 253 251 252 256 257 260 262 264 267 271 277 280 283 285 286 289 290 292 292 294 293 295 295 294 295 297
215 218 216 220 222 228 229 230 233 234 238 239 241 244 245 248 252 254 255 255 254 257 259 262 267 271 276 279 280 281 282 285 287 287 290 290 289 291 289 293 292 295 299
217 221 223 226 226 228 230 233 235 237 239 240 245 246 246 250 254 256 258 262 265 264 264 267 267 269 272 273 276 279 280 281 281 284 284 285 287 290 289 291 293 297 299
219 225 230 230 229 229 232 236 239 241 243 245 245 245 249 254 257 257 258 260 263 264 265 267 269 271 274 276 278 277 279 280 282 280 285 284 284 289 293 294 296 298 303
227 230 234 236 236 236 236 237 241 242 243 245 247 248 251 253 256 258 260 262 266 267 269 269 269 271 273 276 277 278 280 280 280 281 281 284 288 290 293 294 296 302 299
230 233 234 238 241 241 241 242 244 244 245 245 247 250 250 253 256 258 262 265 266 266 267 270 270 272 273 274 276 276 278 276 276 278 281 286 288 292 295 297 297 299 299
231 234 236 236 239 241 243 244 244 246 247 248 249 250 251 253 254 257 259 260 263 265 266 268 268 267 268 269 271 272 274 276 278 280 284 289 290 291 294 295 296 296 299
234 236 238 239 241 242 241 245 246 248 249 250 250 252 254 255 256 256 259 261 262 264 264 267 268 269 270 270 272 275 277 278 279 281 288 289 289 290 290 292 295 296 297
237 238 239 240 243 245 246 248 248 248 249 250 252 253 253 255 256 257 259 262 263 264 264 265 267 270 272 272 274 276 276 278 280 282 283 284 286 285 291 292 294 289 299
250 249 249 250 248 249 250 251 251 250 252 253 254 255 255 256 257 259 259 260 262 262 263 265 267 268 270 272 273 275 276 276 278 280 280 282 284 285 292 292 290 293 298
260 260 259 259 259 255 255 254 256 254 255 256 257 257 257 258 260 261 261 261 264 264 265 268 269 270 272 274 273 275 276 277 275 277 278 282 281 284 285 294 293 296 300
262 263 264 261 260 262 262 262 261 260 259 258 259 263 260 261 261 263 264 263 264 267 269 270 272 273 274 271 272 275 276 276 273 279 279 280 282 288 286 292 293 299 299
270 265 268 271 268 266 266 266 265 266 264 263 263 263 263 261 261 262 264 264 266 269 270 270 271 268 266 270 272 272 277 275 273 276 276 281 283 287 288 293 293 294 296
306 299 295 291 280 274 269 267 265 264 264 264 264 263 264 264 264 265 264 265 266 266 267 267 266 266 267 268 269 271 274 274 274 277 281 284 286 288 288 289 292 291 292
328 320 314 307 297 287 280 276 273 271 269 268 266 265 264 264 264 264 265 265 265 266 267 268 269 269 270 270 271 272 274 277 278 280 282 283 285 286 287 287 285 286 285
329 328 323 315 306 297 289 283 279 276 274 273 272 271 269 268 266 266 264 264 265 266 267 268 269 270 271 272 274 275 277 280 281 282 283 284 283 283 284 283 283 282 282
331 330 326 319 312 304 298 292 287 283 279 276 273 271 269 269 268 267 267 265 264 264 265 266 267 268 270 271 273 274 275 277 278 279 280 282 282 282 282 281 280 279 279
333 330 327 322 317 310 305 301 296 291 286 282 278 275 273 270 269 268 268 266 265 264 264 264 265 266 267 268 270 272 274 275 276 276 277 278 278 278 278 278 279 278 279
334 331 327 324 319 314 309 306 302 298 293 287 283 280 277 274 273 272 272 271 270 267 266 265 265 265 265 265 266 267 269 270 270 270 271 272 272 274 275 275 277 277 278
335 331 328 324 320 317 314 310 305 300 295 290 285 282 280 279 278 277 276 274 273 272 270 268 267 266 265 265 264 265 266 266 266 266 267 268 269 269 270 272 273 275 276
334 330 327 324 321 319 316 312 307 303 298 293 289 285 283 281 280 279 277 276 276 275 274 272 271 269 267 265 264 263 263 263 263 264 264 265 266 267 268 268 270 271 273
Height
10618 10629 10638 10645 10654 10660 10666 10676 10681 10687 10691 10696 10699 10702 10705 10707 10709 10709 10709 10706 10704 10701 10696 10691 10687 10684 10681 10681 10683 10685 10682 10680 10677 10677 10672 10669 10667 10661 10656 10650 10647 10645 10636
10616 10627 10632 10640 10648 10656 10662 10667 10673 10674 10678 10684 10687 10690 10692 10693 10694 10694 10695 10693 10690 10687 10684 10677 10674 10671 10671 10672 10672 10671 10668 10668 10665 10663 10660 10655 10651 10648 10641 10638 10629 10626 10621
10611 10620 10628 10636 10644 10648 10651 10654 10656 10655 10665 10669 10671 10673 10675 10677 10678 10679 10680 10680 10679 10675 10669 10664 10660 10660 10660 10660 10659 10657 10656 10654 10651 10645 10643 10640 10636 10633 10627 10622 10615 10610 10605
10600 10607 10617 10624 10626 10632 10637 10642 10644 10644 10648 10651 10655 10655 10657 10657 10659 10661 10662 10663 10661 10656 10660 10655 10649 10645 10644 10643 10641 10642 10640 10637 10634 10632 10628 10625 10619 10615 10611 10605 10600 10593 10590
10586 10597 10602 10607 10606 10611 10614 10621 10627 10626 10627 10634 10637 10636 10636 10635 10638 10639 10645 10645 10642 10639 10641 10642 10636 10631 10628 10629 10628 10627 10625 10622 10618 10615 10612 10609 10605 10600 10595 10590 10584 10580 10569
10573 10582 10591 10597 10600 10602 10608 10612 10614 10616 10618 10619 10621 10621 10622 10620 10622 10624 10629 10630 10627 10625 10620 10620 10618 10617 10619 10618 10616 10613 10610 10604 10603 10597 10596 10593 10589 10584 10579 10574 10567 10560 10554
10567 10574 10582 10584 10587 10591 10593 10593 10597 10600 10601 10604 10604 10605 10606 10605 10604 10605 10604 10606 10607 10607 10604 10605 10605 10603 10602 10601 10599 10594 10590 10588 10586 10581 10577 10574 10569 10567 10563 10554 10547 10542 10539
10557 10561 10566 10569 10574 10576 10578 10578 10582 10583 10584 10589 10592 10592 10593 10589 10590 10591 10591 10590 10591 10592 10589 10590 10586 10585 10584 10581 10578 10576 10571 10567 10566 10564 10557 10554 10549 10545 10540 10535 10529 10525 10514
10552 10555 10557 10558 10560 10563 10563 10565 10569 10573 10574 10577 10578 10577 10577 10571 10573 10573 10570 10573 10568 10567 10567 10568 10567 10566 10563 10561 10560 10555 10551 10548 10547 10544 10539 10534 10531 10527 10525 10516 10510 10505 10493
10545 10545 10546 10547 10546 10547 10547 10550 10553 10554 10554 10557 10557 10556 10559 10553 10550 10554 10546 10551 10550 10549 10550 10545 10545 10543 10540 10540 10537 10533 10530 10529 10524 10521 10518 10514 10509 10507 10502 10493 10487 10488 10470
10533 10533 10531 10531 10531 10533 10534 10537 10538 10536 10538 10538 10537 10535 10534 10532 10532 10531 10529 10528 10527 10526 10525 10525 10522 10520 10517 10515 10513 10510 10507 10505 10502 10498 10496 10492 10487 10482 10476 10471 10462 10461 10449
10514 10515 10516 10514 10514 10512 10514 10516 10516 10516 10516 10515 10515 10511 10509 10510 10507 10508 10506 10504 10504 10503 10502 10503 10501 10497 10493 10491 10490 10487 10485 10484 10480 10474 10469 10469 10460 10462 10453 10446 10439 10437 10431
10500 10499 10499 10497 10493 10491 10488 10488 10488 10489 10490 10490 10486 10484 10482 10482 10479 10480 10479 10478 10478 10476 10474 10475 10474 10472 10470 10466 10464 10463 10462 10458 10454 10445 10448 10439 10437 10435 10427 10418 10412 10414 10407
10482 10480 10480 10475 10470 10467 10465 10464 10462 10460 10459 10460 10458 10455 10452 10450 10448 10447 10450 10450 10448 10445 10440 10441 10443 10445 10439 10435 10436 10436 10432 10429 10429 10419 10418 10414 10410 10402 10405 10396 10392 10383 10386
10481 10479 10470 10460 10453 10449 10444 10440 10437 10433 10430 10428 10428 10427 10423 10420 10418 10415 10412 10414 10414 10412 10408 10409 10409 10405 10402 10401 10398 10399 10399 10399 10396 10392 10384 10384 10382 10374 10377 10372 10364 10365 10356
10465 10458 10446 10438 10431 10422 10414 10406 10403 10403 10399 10394 10393 10393 10391 10388 10386 10382 10381 10378 10379 10377 10377 10376 10374 10372 10367 10363 10358 10364 10363 10365 10359 10357 10354 10355 10351 10350 10347 10345 10339 10337 10334
10437 10424 10414 10404 10394 10382 10377 10369 10363 10361 10357 10357 10354 10356 10354 10351 10348 10347 10342 10341 10340 10340 10340 10337 10337 10330 10326 10321 10320 10325 10329 10329 10326 10327 10329 10328 10315 10332 10316 10314 10313 10309 10306
10412 10400 10386 10371 10358 10347 10337 10328 10321 10313 10309 10304 10303 10302 10302 10302 10302 10301 10299 10302 10301 10297 10296 10294 10294 10289 10288 10290 10289 10288 10292 10295 10292 10297 10296 10293 10292 10290 10289 10291 10288 10287 10284
10380 10366 10355 10342 10329 10315 10303 10293 10285 10278 10270 10263 10259 10258 10255 10253 10251 10251 10255 10255 10252 10252 10251 10254 10255 10252 10253 10251 10255 10256 10258 10258 10262 10264 10261 10261 10262 10264 10264 10265 10263 10262 10262
10351 10339 10327 10312 10299 10287 10275 10264 10254 10244 10236 10231 10226 10223 10222 10221 10218 10218 10216 10216 10216 10214 10214 10214 10213 10213 10214 10216 10218 10219 10222 10223 10226 10229 10231 10233 10235 10236 10238 10239 10239 10239 10240
10327 10313 10300 10286 10272 10259 10247 10236 10227 10219 10211 10203 10198 10194 10191 10190 10189 10187 10188 10188 10186 10185 10184 10183 10184 10184 10184 10185 10186 10188 10189 10191 10194 10196 10198 10203 10208 10211 10212 10214 10217 10218 10219
10298 10285 10271 10257 10244 10231 10221 10211 10201 10193 10186 10180 10175 10170 10166 10163 10160 10159 10158 10159 10159 10158 10158 10158 10158 10157 10157 10158 10159 10162 10165 10167 10169 10171 10175 10178 10180 10185 10188 10191 10194 10195 10197
10273 10258 10243 10228 10215 10203 10193 10183 10175 10167 10160 10154 10149 10145 10143 10140 10137 10135 10134 10133 10132 10132 10131 10132 10132 10132 10132 10133 10134 10135 10137 10139 10143 10147 10151 10155 10157 10160 10164 10167 10168 10172 10174
10252 10236 10220 10205 10192 10181 10170 10159 10151 10143 10137 10131 10126 10122 10120 10118 10116 10113 10111 10110 10108 10108 10107 10106 10107 10107 10108 10110 10111 10113 10116 10119 10122 10125 10128 10131 10134 10137 10140 10142 10145 10146 10149
10231 10214 10198 10183 10170 10159 10149 10139 10131 10124 10118 10113 10109 10105 10101 10098 10095 10092 10090 10088 10086 10084 10083 10082 10082 10084 10085 10086 10088 10090 10093 10096 10098 10101 10103 10106 10110 10113 10116 10119 10120 10122 10123
10210 10193 10178 10164 10152 10140 10130 10122 10114 10107 10101 10096 10091 10087 10083 10080 10077 10074 10071 10068 10066 10064 10063 10062 10061 10062 10063 10064 10066 10068 10070 10073 10075 10077 10079 10082 10084 10087 10091 10092 10094 10096 10098